Regional Weather Roundup
Issued by NWS

Home | Current Version | Previous Version | Text Only | Print | Product List | Glossary Off
Versions: 1 2 3 4 5 6 7 8 9 10 11 12 13 14 15 16 17 18 19 20 21 22 23 24 25 26 27 28 29 30 31 32 33 34 35 36 37 38 39 40 41 42 43 44 45 46 47 48 49 50

000
ASUS43 KBIS 250410
RWRND

NORTH DAKOTA REGIONAL WEATHER ROUNDUP
NATIONAL WEATHER SERVICE BISMARCK ND
1000 PM CST FRI NOV 24 2017

NOTE: "FAIR" INDICATES FEW OR NO CLOUDS BELOW 12,000 FEET WITH NO
SIGNIFICANT WEATHER AND/OR OBSTRUCTIONS TO VISIBILITY.


NDZ001>003-009>011-017-250500-
NORTHWEST NORTH DAKOTA

CITY           SKY/WX    TMP DP  RH WIND       PRES   REMARKS
WILLISTON      CLEAR     37  27  67 W10       29.87R
MINOT          CLEAR     37  30  75 W10       29.84R
MINOT AFB      CLEAR     31  28  88 W8        29.83R
$$

NDZ018>021-031>035-040>046-250500-
SOUTHWEST NORTH DAKOTA

CITY           SKY/WX    TMP DP  RH WIND       PRES   REMARKS
BISMARCK       CLEAR     40  30  67 NW8       29.88R
DICKINSON      CLEAR     33  26  75 W10       29.89R
GARRISON         N/A     31  28  89 NW7       29.86R
HETTINGER ARPT CLEAR     26  23  88 NW5       29.95R
$$

NDZ004>008-012>016-024-026-027-054-250500-
NORTHEAST NORTH DAKOTA

CITY           SKY/WX    TMP DP  RH WIND       PRES   REMARKS
GRAND FORKS    PTCLDY    31  28  89 N14       29.79R
GRND FRKS AFB  MOCLDY    30  27  86 N13       29.80R
DEVILS LAKE    PTCLDY    34  30  85 NW13      29.81R
$$

NDZ022-023-025-028>030-036>039-047>053-250500-
SOUTHEAST NORTH DAKOTA

CITY           SKY/WX    TMP DP  RH WIND       PRES   REMARKS
FARGO          PTCLDY    39  32  76 NW14      29.79R
JAMESTOWN      CLOUDY    37  30  75 NW9       29.82R
$$




USA.gov is the U.S. government's official web portal to all federal, state and local government web resources and services.